895 
ASUS46 KSEW 171910
RWRWA 

WASHINGTON REGIONAL WEATHER ROUNDUP
NATIONAL WEATHER SERVICE SEATTLE WA
1100 AM PST SAT FEB 17 2018

NOTE:"FAIR" INDICATES FEW OR NO CLOUDS BELOW 12,000 FEET WITH NO 
SIGNIFICANT WEATHER AND/OR OBSTRUCTIONS TO VISIBILITY.

WAZ507-509-555>559-172000-
SEATTLE, TACOMA, EVERETT, AND VICINITY
  
CITY           SKY/WX    TMP DP  RH WIND       PRES   REMARKS
EVERETT        CLOUDY    49  43  80 S28G40    29.55S                  
BOEING FIELD   PTSUNNY   49  44  83 S16G37    29.62R                  
RENTON         CLOUDY    49  44  83 S16G33    29.63R                  
SEATAC AIRPORT CLOUDY    48  46  93 SW29G48   29.62R                  
JBLM-MCCHORD   CLOUDY    48  48 100 SW25G43   29.65R                  
PUYALLUP       DRIZZLE   46  46 100 SW15G26   29.66S                  
BREMERTON      LGT RAIN  47  44  90 SW25G44   29.58R                  
JBLM-FT LEWIS  CLOUDY    47  47 100 S24G33    29.66R                  
TACOMA NARROWS PTSUNNY   48  45  89 SW20G37   29.62F FOG              
$$
 
WAZ001-503-506-510-514-515-172000-
NORTH INTERIOR
  
CITY           SKY/WX    TMP DP  RH WIND       PRES   REMARKS
BELLINGHAM     CLOUDY    46  44  93 S13G31    29.48F                  
FRIDAY HARBOR  PTSUNNY   46  40  79 SW14G30   29.53S                  
EASTSOUND      MOSUNNY   46  45  93 S13G20    29.49F                  
PORT ANGELES   LGT RAIN  45  42  89 W16G31    29.55S FOG              
EDIZ HOOK      DRIZZLE   45  41  86 W25G36    29.54S                  
PORT TOWNSEND  LGT RAIN  46  45  93 W5        29.57R                  
NAS WHIDBEY    LGT RAIN  48  43  82 W28G45    29.59R                  
ARLINGTON      RAIN      46  45  93 SW14G23   29.56F                  
BURLINGTON     PTSUNNY   46  45  93 SW17G30   29.55S FOG              
$$
 
WAZ020-022-039-040-504-511-512-172000-
SOUTHWEST INTERIOR
  
CITY           SKY/WX    TMP DP  RH WIND       PRES   REMARKS
SHELTON        LGT RAIN  47  45  93 SW23G39   29.65R FOG              
OLYMPIA        CLOUDY    47  45  93 SW18G36   29.69F                  
CHEHALIS       PTSUNNY   50  46  87 SW14      29.76F                  
KELSO          RAIN      48  46  93 S12       29.84F                  
VANCOUVER      CLOUDY    50  47  89 S13G25    29.87F                  
SCAPPOOSE, OR  LGT RAIN  49  47  93 S7        29.83F                  
PORTLAND, OR   CLOUDY    50  46  86 SW18G25   29.87F                  
$$
 
WAZ021-516-517-172000-
WASHINGTON COAST
  
CITY           SKY/WX    TMP DP  RH WIND       PRES   REMARKS
FORKS          CLOUDY    44  38  79 W18G32    29.66R                  
HOQUIAM        LGT RAIN  47  45  93 SW29G44   29.74S FOG              
ASTORIA, OR    CLOUDY    47  46  97 SW18G30   29.86F                  
$$
 
WAZ019-023-024-040-567>569-172000-
CASCADE MOUNTAINS AND COLUMBIA GORGE
  
CITY           SKY/WX    TMP DP  RH WIND       PRES   REMARKS
STAMPEDE PASS  NOT AVBL                                               
TROUTDALE, OR  CLOUDY    51  46  83 SW17G35   29.86F                  
HOOD RIVER, OR RAIN      50  45  81 W7        29.77F                  
THE DALLES, OR CLOUDY    54  44  69 CALM      29.75F                  
$$

WAZ026-027-041>044-520-521-172000-
EAST SLOPES
  
CITY           SKY/WX    TMP DP  RH WIND       PRES   REMARKS
OMAK           LGT SNOW  32  32 100 CALM      29.57F VSB 3/4          
WENATCHEE      CLOUDY    31  30  96 E15G24    29.52F WCI  20          
ELLENSBURG     LGT RAIN  35  33  92 E7G18     29.57F VSB 1/4          
YAKIMA         PTSUNNY   43  35  73 SW3       29.65F                  
SUNNYSIDE ARPT CLOUDY    51  37  60 SW18      29.68F                  
YAKIMA TC      MOCLDY    43  34  71 SW3       29.61F                  
$$

WAZ028-034-035-172000-
COLUMBIA BASIN
  
CITY           SKY/WX    TMP DP  RH WIND       PRES   REMARKS
EPHRATA        CLOUDY    39  33  79 S20       29.53F                  
MOSES LAKE     CLOUDY    44  40  85 S14G20    29.60F                  
PASCO          CLOUDY    52  38  58 SW23G35   29.73F                  
RICHLAND ARPT  CLOUDY    54  41  60 SW30G44   29.70F                  
HERMISTON, OR  CLOUDY    49  38  65 CALM      29.73F                  
$$

WAZ036>038-172000-
NORTHEAST WASHINGTON
  
CITY           SKY/WX    TMP DP  RH WIND       PRES   REMARKS
SPOKANE GEIGER LGT SNOW  33  33 100 S12       29.62F VSB 3/4 WCI  24  
SPOKANE FELTS  LGT SNOW  35  33  92 S7        29.66F FOG              
FAIRCHILD AFB  LGT SNOW  33  33 100 S16       29.59F FOG     WCI  22  
COEURDALENE,ID LGT SNOW  33  32  96 S12       29.65F FOG     WCI  24  
DEER PARK      SNOW      28  28 100 SE3       29.61F VSB 1/2          
$$

WAZ029>033-172000-
SOUTHEAST WASHINGTON
  
CITY           SKY/WX    TMP DP  RH WIND       PRES   REMARKS
PULLMAN        SNOW      33  32  96 S12       29.72F VSB 1/2 WCI  24  
LEWISTON, ID   CLOUDY    44  36  73 S13       29.73F                  
WALLA WALLA    LGT RAIN  47  39  74 S24G32    29.73F                  
PENDLETON, OR  CLOUDY    50  36  58 S8        29.73F                  
$$